Home > Weather > Schwedt/Oder > Past weeks

Flag for Germany Past Weather in Schwedt/Oder, Brandenburg, Germany — Yesterday and Last 2 Weeks

Now
75 °F

Passing clouds.


Feels Like: 78 °F
Forecast: 60 / 80 °F
Wind: 10 mph from Southwest

Location: Szczecin Airport

Current Time: Jun 30, 2016 at 5:59:56 PM

Latest Report: Jun 30, 2016 at 5:30 PM


Visibility: N/A

Pressure: 29.89 "Hg

Humidity: 44%

Dew Point: 52 °F

Location of Schwedt/OderLocation

Past Weather in Schwedt/Oder — Graph

°F

Schwedt/Oder Temperature Yesterday

Maximum temperature yesterday: 75 °F (at 4:30 PM)
Minimum temperature yesterday: 52 °F (at 3:00 AM)
Average temperature yesterday: 64 °F

High & Low Weather Summary for the Past Weeks

 TemperatureHumidityPressure
High91 °F (Jun 25, 1:00 PM)100% (Jun 15, 10:00 PM)30.27 "Hg (Jun 15, 10:00 PM)
Low50 °F (Jun 19, 3:30 AM)39% (Jun 22, 3:30 PM)29.42 "Hg (Jun 17, 11:00 AM)
Average66 °F75%29.95 "Hg
* Reported Jun 15 5:00 PM — Jun 30 5:00 PM, Schwedt/Oder, Weather by CustomWeather, © 2016

Note: Actual official high and low records may vary slightly from our data, if they occured in-between our weather recording intervals... More about our weather records

Advertising

Schwedt/Oder Weather History for the Previous 24 Hours

Scroll right to see more
 ConditionsComfort  
Time TempWeatherWind HumidityBarometerVisibility
5:00 PM
Thu, Jun 30
77 °FPassing clouds.9 mph44%29.89 "HgN/A
4:30 PM75 °FPassing clouds.9 mph47%29.89 "HgN/A
4:00 PM75 °FSunny.10 mph47%29.89 "Hg10 mi
3:30 PM75 °FPassing clouds.8 mph47%29.89 "HgN/A
3:00 PM75 °FPassing clouds.12 mph44%29.89 "HgN/A
2:30 PM75 °FPassing clouds.9 mph47%29.89 "HgN/A
2:00 PM75 °FPassing clouds.10 mph50%29.89 "HgN/A
1:30 PM75 °FPassing clouds.9 mph47%29.89 "HgN/A
1:00 PM75 °FPassing clouds.12 mph44%29.89 "HgN/A
12:30 PM75 °FPassing clouds.10 mph47%29.89 "HgN/A
12:00 PM73 °FPassing clouds.10 mph47%29.92 "HgN/A
11:30 AM73 °FPassing clouds.8 mph47%29.92 "HgN/A
11:00 AM72 °FPassing clouds.9 mph50%29.92 "HgN/A
10:30 AM70 °FPassing clouds.8 mph50%29.92 "HgN/A
10:00 AM70 °FPassing clouds.9 mph57%29.92 "HgN/A
9:30 AM70 °FPassing clouds.5 mph57%29.92 "HgN/A
9:00 AM66 °FPassing clouds.5 mph64%29.92 "HgN/A
8:30 AM66 °FSunny.1 mph73%29.92 "Hg10 mi
8:00 AM64 °FSunny.1 mph73%29.92 "Hg10 mi
7:30 AM59 °FSunny.2 mph88%29.92 "Hg10 mi
7:00 AM57 °FSunny.2 mph88%29.92 "Hg10 mi
6:30 AM55 °FSunny.3 mph94%29.92 "Hg10 mi
6:00 AM54 °FSunny.5 mph94%29.92 "Hg10 mi
5:30 AM52 °FClear.3 mph94%29.92 "Hg10 mi
5:00 AM50 °FClear.3 mph94%29.92 "Hg10 mi
4:30 AM50 °FClear.3 mph94%29.92 "Hg10 mi
4:00 AM52 °FClear.3 mph94%29.92 "Hg10 mi
3:30 AM52 °FClear.2 mph94%29.92 "Hg10 mi
3:00 AM52 °FClear.2 mph94%29.92 "Hg10 mi
2:30 AM52 °FClear.2 mph94%29.92 "Hg10 mi
2:00 AM52 °FClear.2 mph94%29.92 "Hg10 mi
1:30 AM54 °FClear.1 mph94%29.92 "Hg10 mi
1:00 AM54 °FClear.1 mph94%29.92 "Hg10 mi
12:30 AM54 °FClear.2 mph94%29.92 "Hg10 mi
12:00 AM55 °FClear.2 mph88%29.92 "Hg10 mi
11:30 PM
Wed, Jun 29
57 °FClear.2 mph82%29.89 "Hg10 mi
11:00 PM59 °FClear.2 mph77%29.89 "Hg10 mi
10:30 PM61 °FSunny.2 mph77%29.89 "Hg10 mi
10:00 PM63 °FPassing clouds.5 mph64%29.89 "HgN/A
9:30 PM66 °FSunny.2 mph60%29.86 "Hg10 mi
9:00 PM68 °FPassing clouds.6 mph49%29.86 "HgN/A
8:30 PM68 °FPassing clouds.5 mph56%29.86 "HgN/A
8:00 PM72 °FSunny.6 mph50%29.86 "Hg10 mi
7:30 PM73 °FSunny.9 mph47%29.86 "Hg10 mi
7:00 PM73 °FPassing clouds.9 mph47%29.83 "HgN/A
6:30 PM73 °FPassing clouds.10 mph44%29.83 "HgN/A
6:00 PM75 °FPassing clouds.13 mph44%29.83 "HgN/A
5:30 PM75 °FPassing clouds.12 mph44%29.83 "HgN/A
5:00 PM75 °FSunny.14 mph44%29.83 "Hg10 mi
Weather by CustomWeather, © 2016

See weather overviewHow to use our weather pages